date,time,SUV Intensity [MED/Hr],UV Index,Daily total [MED],Since Last [MED]
14/05/2022,00:08:11,0.001,0.0,0.0,0.0
14/05/2022,00:10:03,-0.001,0.0,0.0,0.0
14/05/2022,00:12:03,-0.000,0.0,0.0,0.0
14/05/2022,00:13:02,0.001,0.0,0.0,0.0
14/05/2022,00:14:02,0.000,0.0,0.0,0.0
14/05/2022,00:16:03,-0.001,0.0,0.0,0.0
14/05/2022,00:17:02,0.001,0.0,0.0,0.0
14/05/2022,00:18:11,0.000,0.0,0.0,0.0
14/05/2022,00:20:03,0.000,0.0,0.0,0.0
14/05/2022,00:21:02,0.000,0.0,0.0,0.0
14/05/2022,00:22:02,-0.001,0.0,0.0,0.0
14/05/2022,00:23:03,-0.000,0.0,0.0,0.0
14/05/2022,00:24:01,0.000,0.0,0.0,0.0
14/05/2022,00:25:02,-0.000,0.0,0.0,0.0
14/05/2022,00:26:03,0.000,0.0,0.0,0.0
14/05/2022,00:28:03,0.000,0.0,0.0,0.0
14/05/2022,00:29:02,0.001,0.0,0.0,0.0
14/05/2022,00:30:02,-0.001,0.0,0.0,0.0
14/05/2022,00:32:12,0.000,0.0,0.0,0.0
14/05/2022,00:34:03,0.000,0.0,0.0,0.0
14/05/2022,00:35:02,0.000,0.0,0.0,0.0
14/05/2022,00:36:02,0.000,0.0,0.0,0.0
14/05/2022,00:37:01,0.000,0.0,0.0,0.0
14/05/2022,00:38:03,0.000,0.0,0.0,0.0
14/05/2022,00:40:03,0.000,0.0,0.0,0.0
14/05/2022,00:41:10,0.001,0.0,0.0,0.0
14/05/2022,00:43:04,0.002,0.0,0.0,0.0
14/05/2022,00:44:03,0.000,0.0,0.0,0.0
14/05/2022,00:45:04,0.000,0.0,0.0,0.0
14/05/2022,00:47:03,0.000,0.0,0.0,0.0
14/05/2022,00:48:02,0.000,0.0,0.0,0.0
14/05/2022,00:49:02,0.000,0.0,0.0,0.0
14/05/2022,00:50:01,0.000,0.0,0.0,0.0
14/05/2022,00:51:03,0.000,0.0,0.0,0.0
14/05/2022,00:52:02,0.000,0.0,0.0,0.0
14/05/2022,00:53:03,0.000,0.0,0.0,0.0
14/05/2022,00:54:03,0.000,0.0,0.0,0.0
14/05/2022,00:55:02,0.001,0.0,0.0,0.0
14/05/2022,00:56:02,0.001,0.0,0.0,0.0
14/05/2022,00:57:01,0.000,0.0,0.0,0.0
14/05/2022,00:59:04,-0.000,0.0,0.0,0.0
14/05/2022,01:00:03,0.000,0.0,0.0,0.0
14/05/2022,01:01:02,0.000,0.0,0.0,0.0
14/05/2022,01:03:03,0.001,0.0,0.0,0.0
14/05/2022,01:04:02,0.000,0.0,0.0,0.0
14/05/2022,01:05:03,0.000,0.0,0.0,0.0
14/05/2022,01:06:02,0.000,0.0,0.0,0.0
14/05/2022,01:07:03,0.000,0.0,0.0,0.0
14/05/2022,01:08:01,0.000,0.0,0.0,0.0
14/05/2022,01:09:03,0.000,0.0,0.0,0.0
14/05/2022,01:10:01,0.000,0.0,0.0,0.0
14/05/2022,01:11:03,-0.001,0.0,0.0,0.0
14/05/2022,01:12:01,-0.001,0.0,0.0,0.0
14/05/2022,01:13:03,0.001,0.0,0.0,0.0
14/05/2022,01:15:04,0.001,0.0,0.0,0.0
14/05/2022,01:16:02,0.000,0.0,0.0,0.0
14/05/2022,01:17:03,-0.001,0.0,0.0,0.0
14/05/2022,01:19:03,-0.000,0.0,0.0,0.0
14/05/2022,01:21:03,-0.000,0.0,0.0,0.0
14/05/2022,01:23:03,0.000,0.0,0.0,0.0
14/05/2022,01:24:02,0.001,0.0,0.0,0.0
14/05/2022,01:25:03,0.001,0.0,0.0,0.0
14/05/2022,01:26:01,0.000,0.0,0.0,0.0
14/05/2022,01:27:02,0.000,0.0,0.0,0.0
14/05/2022,01:28:01,0.001,0.0,0.0,0.0
14/05/2022,01:29:03,-0.000,0.0,0.0,0.0
14/05/2022,01:31:04,0.001,0.0,0.0,0.0
14/05/2022,01:32:03,0.000,0.0,0.0,0.0
14/05/2022,01:33:03,0.000,0.0,0.0,0.0
14/05/2022,01:35:11,0.000,0.0,0.0,0.0
14/05/2022,01:37:04,0.000,0.0,0.0,0.0
14/05/2022,01:38:02,0.001,0.0,0.0,0.0
14/05/2022,01:38:49,0.000,0.0,0.0,0.0
14/05/2022,01:40:03,0.000,0.0,0.0,0.0
14/05/2022,01:41:03,0.001,0.0,0.0,0.0
14/05/2022,01:42:03,-0.000,0.0,0.0,0.0
14/05/2022,01:43:03,0.001,0.0,0.0,0.0
14/05/2022,01:44:11,-0.000,0.0,0.0,0.0
14/05/2022,01:46:03,0.001,0.0,0.0,0.0
14/05/2022,01:47:02,-0.000,0.0,0.0,0.0
14/05/2022,01:48:02,0.001,0.0,0.0,0.0
14/05/2022,01:49:02,0.001,0.0,0.0,0.0
14/05/2022,01:51:04,0.000,0.0,0.0,0.0
14/05/2022,01:53:04,0.000,0.0,0.0,0.0
14/05/2022,01:54:03,0.001,0.0,0.0,0.0
14/05/2022,01:55:02,0.000,0.0,0.0,0.0
14/05/2022,01:56:03,0.000,0.0,0.0,0.0
14/05/2022,01:57:02,0.001,0.0,0.0,0.0
14/05/2022,01:58:03,0.001,0.0,0.0,0.0
14/05/2022,01:59:02,0.000,0.0,0.0,0.0
14/05/2022,02:00:02,-0.000,0.0,0.0,0.0
14/05/2022,02:02:04,0.001,0.0,0.0,0.0
14/05/2022,02:03:02,0.001,0.0,0.0,0.0
14/05/2022,02:04:03,0.001,0.0,0.0,0.0
14/05/2022,02:06:04,0.001,0.0,0.0,0.0
14/05/2022,02:08:11,0.001,0.0,0.0,0.0
14/05/2022,02:10:04,0.001,0.0,0.0,0.0
14/05/2022,02:11:02,0.001,0.0,0.0,0.0
14/05/2022,02:12:02,0.001,0.0,0.0,0.0
14/05/2022,02:13:01,0.001,0.0,0.0,0.0
14/05/2022,02:14:02,0.001,0.0,0.0,0.0
14/05/2022,02:15:03,0.000,0.0,0.0,0.0
14/05/2022,02:16:03,0.001,0.0,0.0,0.0
14/05/2022,02:18:12,0.001,0.0,0.0,0.0
14/05/2022,02:20:03,-0.000,0.0,0.0,0.0
14/05/2022,02:22:03,0.001,0.0,0.0,0.0
14/05/2022,02:23:02,0.001,0.0,0.0,0.0
14/05/2022,02:24:02,0.000,0.0,0.0,0.0
14/05/2022,02:25:03,0.001,0.0,0.0,0.0
14/05/2022,02:26:01,0.001,0.0,0.0,0.0
14/05/2022,02:27:03,0.000,0.0,0.0,0.0
14/05/2022,02:28:02,-0.000,0.0,0.0,0.0
14/05/2022,02:29:02,0.000,0.0,0.0,0.0
14/05/2022,02:30:01,0.000,0.0,0.0,0.0
14/05/2022,02:31:02,0.001,0.0,0.0,0.0
14/05/2022,02:32:03,0.001,0.0,0.0,0.0
14/05/2022,02:34:03,0.001,0.0,0.0,0.0
14/05/2022,02:35:02,0.001,0.0,0.0,0.0
14/05/2022,02:36:02,0.001,0.0,0.0,0.0
14/05/2022,02:38:11,0.000,0.0,0.0,0.0
14/05/2022,02:40:03,-0.000,0.0,0.0,0.0
14/05/2022,02:41:02,0.001,0.0,0.0,0.0
14/05/2022,02:42:03,0.000,0.0,0.0,0.0
14/05/2022,02:43:01,0.001,0.0,0.0,0.0
14/05/2022,02:44:03,0.001,0.0,0.0,0.0
14/05/2022,02:45:02,-0.000,0.0,0.0,0.0
14/05/2022,02:46:03,0.001,0.0,0.0,0.0
14/05/2022,02:47:02,0.001,0.0,0.0,0.0
14/05/2022,02:48:02,0.002,0.0,0.0,0.0
14/05/2022,02:49:02,0.001,0.0,0.0,0.0
14/05/2022,02:50:11,0.001,0.0,0.0,0.0
14/05/2022,02:52:03,0.001,0.0,0.0,0.0
14/05/2022,02:54:04,0.001,0.0,0.0,0.0
14/05/2022,02:55:03,0.001,0.0,0.0,0.0
14/05/2022,02:56:03,0.001,0.0,0.0,0.0
14/05/2022,02:57:10,0.001,0.0,0.0,0.0
14/05/2022,02:59:04,0.001,0.0,0.0,0.0
14/05/2022,03:00:11,0.001,0.0,0.0,0.0
14/05/2022,03:02:03,0.001,0.0,0.0,0.0
14/05/2022,03:03:02,0.001,0.0,0.0,0.0
14/05/2022,03:04:02,0.001,0.0,0.0,0.0
14/05/2022,03:06:03,0.001,0.0,0.0,0.0
14/05/2022,03:07:10,0.001,0.0,0.0,0.0
14/05/2022,03:09:04,0.001,0.0,0.0,0.0
14/05/2022,03:10:11,0.001,0.0,0.0,0.0
14/05/2022,03:12:03,0.001,0.0,0.0,0.0
14/05/2022,03:13:02,0.000,0.0,0.0,0.0
14/05/2022,03:14:03,0.001,0.0,0.0,0.0
14/05/2022,03:15:02,0.001,0.0,0.0,0.0
14/05/2022,03:16:03,0.001,0.0,0.0,0.0
14/05/2022,03:17:02,0.001,0.0,0.0,0.0
14/05/2022,03:18:03,0.001,0.0,0.0,0.0
14/05/2022,03:19:02,0.000,0.0,0.0,0.0
14/05/2022,03:20:11,0.000,0.0,0.0,0.0
14/05/2022,03:22:04,0.001,0.0,0.0,0.0
14/05/2022,03:23:03,0.001,0.0,0.0,0.0
14/05/2022,03:25:03,-0.000,0.0,0.0,0.0
14/05/2022,03:26:02,0.001,0.0,0.0,0.0
14/05/2022,03:27:11,0.000,0.0,0.0,0.0
14/05/2022,03:29:03,0.001,0.0,0.0,0.0
14/05/2022,03:30:11,0.000,0.0,0.0,0.0
14/05/2022,03:32:03,0.001,0.0,0.0,0.0
14/05/2022,03:33:04,0.001,0.0,0.0,0.0
14/05/2022,03:34:03,0.001,0.0,0.0,0.0
14/05/2022,03:35:03,0.001,0.0,0.0,0.0
14/05/2022,03:36:01,0.000,0.0,0.0,0.0
14/05/2022,03:38:12,0.001,0.0,0.0,0.0
14/05/2022,03:40:03,0.000,0.0,0.0,0.0
14/05/2022,03:41:02,0.000,0.0,0.0,0.0
14/05/2022,03:42:03,0.000,0.0,0.0,0.0
14/05/2022,03:43:11,0.000,0.0,0.0,0.0
14/05/2022,03:45:03,0.001,0.0,0.0,0.0
14/05/2022,03:46:02,0.001,0.0,0.0,0.0
14/05/2022,03:47:03,0.000,0.0,0.0,0.0
14/05/2022,03:48:02,0.001,0.0,0.0,0.0
14/05/2022,03:49:03,0.001,0.0,0.0,0.0
14/05/2022,03:50:02,0.000,0.0,0.0,0.0
14/05/2022,03:51:02,0.000,0.0,0.0,0.0
14/05/2022,03:53:04,0.000,0.0,0.0,0.0
14/05/2022,03:54:03,0.001,0.0,0.0,0.0
14/05/2022,03:56:04,0.000,0.0,0.0,0.0
14/05/2022,03:58:04,0.000,0.0,0.0,0.0
14/05/2022,03:59:03,0.001,0.0,0.0,0.0
14/05/2022,04:00:11,0.001,0.0,0.0,0.0
14/05/2022,04:02:04,0.001,0.0,0.0,0.0
14/05/2022,04:03:02,0.001,0.0,0.0,0.0
14/05/2022,04:04:03,0.001,0.0,0.0,0.0
14/05/2022,04:05:02,0.001,0.0,0.0,0.0
14/05/2022,04:06:03,-0.000,0.0,0.0,0.0
14/05/2022,04:07:01,0.001,0.0,0.0,0.0
14/05/2022,04:09:03,0.001,0.0,0.0,0.0
14/05/2022,04:11:12,0.001,0.0,0.0,0.0
14/05/2022,04:13:03,0.001,0.0,0.0,0.0
14/05/2022,04:14:01,0.001,0.0,0.0,0.0
14/05/2022,04:15:03,0.001,0.0,0.0,0.0
14/05/2022,04:15:49,0.001,0.0,0.0,0.0
14/05/2022,04:17:04,0.001,0.0,0.0,0.0
14/05/2022,04:18:03,0.001,0.0,0.0,0.0
14/05/2022,04:19:02,0.002,0.0,0.0,0.0
14/05/2022,04:20:03,0.002,0.0,0.0,0.0
14/05/2022,04:21:02,0.001,0.0,0.0,0.0
14/05/2022,04:22:02,0.002,0.0,0.0,0.0
14/05/2022,04:23:11,0.002,0.0,0.0,0.0
14/05/2022,04:25:12,0.002,0.0,0.0,0.0
14/05/2022,04:27:03,0.002,0.0,0.0,0.0
14/05/2022,04:28:02,0.001,0.0,0.0,0.0
14/05/2022,04:29:03,0.003,0.0,0.0,0.0
14/05/2022,04:30:03,0.003,0.0,0.0,0.0
14/05/2022,04:31:12,0.003,0.0,0.0,0.0
14/05/2022,04:33:12,0.003,0.0,0.0,0.0
14/05/2022,04:35:12,0.004,0.0,0.0,0.0
14/05/2022,04:37:04,0.003,0.0,0.0,0.0
14/05/2022,04:38:03,0.003,0.0,0.0,0.0
14/05/2022,04:39:02,0.003,0.0,0.0,0.0
14/05/2022,04:41:04,0.003,0.0,0.0,0.0
14/05/2022,04:43:03,0.004,0.0,0.0,0.0
14/05/2022,04:44:02,0.004,0.0,0.0,0.0
14/05/2022,04:45:03,0.005,0.0,0.0,0.0
14/05/2022,04:46:02,0.005,0.0,0.0,0.0
14/05/2022,04:47:03,0.005,0.0,0.0,0.0
14/05/2022,04:48:01,0.005,0.0,0.0,0.0
14/05/2022,04:49:03,0.006,0.0,0.0,0.0
14/05/2022,04:50:02,0.006,0.0,0.0,0.0
14/05/2022,04:51:11,0.006,0.0,0.0,0.0
14/05/2022,04:53:04,0.008,0.0,0.0,0.0
14/05/2022,04:54:11,0.008,0.0,0.001,0.001
14/05/2022,04:56:04,0.007,0.0,0.001,0.0
14/05/2022,04:57:02,0.008,0.0,0.001,0.0
14/05/2022,04:59:04,0.009,0.0,0.001,0.0
14/05/2022,05:00:02,0.009,0.0,0.001,0.0
14/05/2022,05:01:03,0.010,0.0,0.002,0.001
14/05/2022,05:02:02,0.010,0.0,0.002,0.0
14/05/2022,05:03:03,0.010,0.0,0.002,0.0
14/05/2022,05:04:18,0.012,0.0,0.002,0.0
14/05/2022,05:06:04,0.013,0.0,0.002,0.0
14/05/2022,05:07:02,0.012,0.0,0.003,0.001
14/05/2022,05:08:03,0.013,0.0,0.003,0.0
14/05/2022,05:09:02,0.014,0.0,0.003,0.0
14/05/2022,05:10:03,0.014,0.0,0.003,0.0
14/05/2022,05:12:04,0.014,0.0,0.004,0.001
14/05/2022,05:14:05,0.015,0.0,0.004,0.0
14/05/2022,05:15:03,0.016,0.0,0.004,0.0
14/05/2022,05:16:03,0.017,0.0,0.005,0.001
14/05/2022,05:17:03,0.018,0.0,0.005,0.0
14/05/2022,05:18:02,0.018,0.0,0.005,0.0
14/05/2022,05:19:03,0.019,0.0,0.006,0.001
14/05/2022,05:20:02,0.020,0.0,0.006,0.0
14/05/2022,05:21:02,0.019,0.0,0.006,0.0
14/05/2022,05:22:03,0.020,0.0,0.007,0.001
14/05/2022,05:24:03,0.022,0.0,0.007,0.0
14/05/2022,05:25:02,0.022,0.0,0.008,0.001
14/05/2022,05:26:03,0.023,0.0,0.008,0.0
14/05/2022,05:28:03,0.022,0.0,0.009,0.001
14/05/2022,05:30:03,0.024,0.0,0.01,0.001
14/05/2022,05:31:02,0.024,0.0,0.01,0.0
14/05/2022,05:32:12,0.026,0.0,0.011,0.001
14/05/2022,05:34:04,0.027,0.0,0.011,0.0
14/05/2022,05:35:11,0.029,0.0,0.012,0.001
14/05/2022,05:37:04,0.031,0.0,0.013,0.001
14/05/2022,05:38:03,0.032,0.0,0.013,0.0
14/05/2022,05:39:03,0.033,0.0,0.014,0.001
14/05/2022,05:40:02,0.034,0.0,0.014,0.0
14/05/2022,05:41:16,0.036,0.0,0.015,0.001
14/05/2022,05:43:04,0.035,0.0,0.016,0.001
14/05/2022,05:44:03,0.034,0.0,0.017,0.001
14/05/2022,05:46:12,0.038,0.0,0.018,0.001
14/05/2022,05:48:04,0.042,0.0,0.019,0.001
14/05/2022,05:49:03,0.043,0.0,0.02,0.001
14/05/2022,05:50:03,0.043,0.0,0.021,0.001
14/05/2022,05:51:02,0.044,0.0,0.021,0.0
14/05/2022,05:52:03,0.045,0.0,0.022,0.001
14/05/2022,05:53:02,0.047,0.0,0.023,0.001
14/05/2022,05:54:03,0.047,0.0,0.024,0.001
14/05/2022,05:55:12,0.049,0.0,0.025,0.001
14/05/2022,05:57:03,0.052,0.0,0.026,0.001
14/05/2022,05:59:03,0.055,0.0,0.028,0.002
14/05/2022,06:00:02,0.055,0.0,0.029,0.001
14/05/2022,06:02:04,0.057,0.0,0.031,0.002
14/05/2022,06:03:02,0.058,0.0,0.032,0.001
14/05/2022,06:04:03,0.060,0.0,0.033,0.001
14/05/2022,06:05:02,0.063,0.0,0.034,0.001
14/05/2022,06:06:03,0.065,0.0,0.035,0.001
14/05/2022,06:07:03,0.068,0.0,0.036,0.001
14/05/2022,06:08:10,0.071,0.0,0.037,0.001
14/05/2022,06:10:04,0.075,0.0,0.039,0.002
14/05/2022,06:11:03,0.077,0.0,0.041,0.002
14/05/2022,06:12:03,0.078,0.0,0.042,0.001
14/05/2022,06:13:02,0.082,0.0,0.043,0.001
14/05/2022,06:14:03,0.083,0.0,0.045,0.002
14/05/2022,06:15:12,0.084,0.0,0.046,0.001
14/05/2022,06:17:04,0.087,0.0,0.049,0.003
14/05/2022,06:18:03,0.088,0.0,0.05,0.001
14/05/2022,06:19:05,0.091,0.0,0.052,0.002
14/05/2022,06:21:05,0.099,0.0,0.055,0.003
14/05/2022,06:23:04,0.104,0.0,0.058,0.003
14/05/2022,06:25:04,0.112,0.0,0.062,0.004
14/05/2022,06:26:03,0.115,0.0,0.064,0.002
14/05/2022,06:27:03,0.116,0.0,0.066,0.002
14/05/2022,06:28:03,0.118,0.0,0.068,0.002
14/05/2022,06:30:03,0.121,0.0,0.072,0.004
14/05/2022,06:31:02,0.125,0.0,0.074,0.002
14/05/2022,06:33:12,0.126,0.0,0.078,0.004
14/05/2022,06:35:04,0.132,0.0,0.082,0.004
14/05/2022,06:36:03,0.133,0.0,0.084,0.002
14/05/2022,06:37:03,0.136,0.0,0.087,0.003
14/05/2022,06:38:02,0.143,0.0,0.089,0.002
14/05/2022,06:39:03,0.141,0.0,0.091,0.002
14/05/2022,06:40:03,0.149,0.0,0.094,0.003
14/05/2022,06:41:03,0.148,0.0,0.096,0.002
14/05/2022,06:42:03,0.146,0.0,0.099,0.003
14/05/2022,06:43:02,0.151,0.0,0.101,0.002
14/05/2022,06:44:04,0.160,0.0,0.104,0.003
14/05/2022,06:46:13,0.174,0.0,0.11,0.006
14/05/2022,06:48:04,0.171,0.0,0.115,0.005
14/05/2022,06:49:03,0.178,0.0,0.118,0.003
14/05/2022,06:50:03,0.177,0.0,0.121,0.003
14/05/2022,06:51:02,0.176,0.0,0.124,0.003
14/05/2022,06:52:03,0.184,0.0,0.127,0.003
14/05/2022,06:53:02,0.186,0.0,0.13,0.003
14/05/2022,06:54:03,0.190,0.0,0.133,0.003
14/05/2022,06:55:12,0.191,0.0,0.137,0.004
14/05/2022,06:57:04,0.194,0.0,0.143,0.006
14/05/2022,06:58:03,0.203,0.0,0.146,0.003
14/05/2022,06:59:03,0.218,1.0,0.15,0.004
14/05/2022,07:00:02,0.221,1.0,0.153,0.003
14/05/2022,07:01:02,0.228,1.0,0.157,0.004
14/05/2022,07:02:03,0.227,1.0,0.161,0.004
14/05/2022,07:04:04,0.243,1.0,0.169,0.008
14/05/2022,07:05:11,0.247,1.0,0.173,0.004
14/05/2022,07:07:03,0.254,1.0,0.181,0.008
14/05/2022,07:08:10,0.259,1.0,0.186,0.005
14/05/2022,07:10:04,0.261,1.0,0.194,0.008
14/05/2022,07:11:02,0.267,1.0,0.199,0.005
14/05/2022,07:12:03,0.271,1.0,0.203,0.004
14/05/2022,07:13:02,0.276,1.0,0.208,0.005
14/05/2022,07:14:03,0.272,1.0,0.212,0.004
14/05/2022,07:15:02,0.258,1.0,0.216,0.004
14/05/2022,07:16:03,0.256,1.0,0.221,0.005
14/05/2022,07:18:04,0.300,1.0,0.23,0.009
14/05/2022,07:20:04,0.305,1.0,0.24,0.01
14/05/2022,07:21:02,0.308,1.0,0.245,0.005
14/05/2022,07:22:03,0.311,1.0,0.251,0.006
14/05/2022,07:23:02,0.322,1.0,0.256,0.005
14/05/2022,07:24:03,0.328,1.0,0.261,0.005
14/05/2022,07:25:03,0.335,1.0,0.267,0.006
14/05/2022,07:26:03,0.343,1.0,0.272,0.005
14/05/2022,07:27:02,0.347,1.0,0.278,0.006
14/05/2022,07:28:03,0.351,1.0,0.284,0.006
14/05/2022,07:29:03,0.359,1.0,0.29,0.006
14/05/2022,07:30:02,0.364,1.0,0.296,0.006
14/05/2022,07:31:04,0.369,1.0,0.302,0.006
14/05/2022,07:33:04,0.380,1.0,0.314,0.012
14/05/2022,07:34:03,0.385,1.0,0.321,0.007
14/05/2022,07:36:04,0.387,1.0,0.333,0.012
14/05/2022,07:37:02,0.395,1.0,0.34,0.007
14/05/2022,07:38:05,0.403,1.0,0.347,0.007
14/05/2022,07:39:03,0.405,1.0,0.353,0.006
14/05/2022,07:40:03,0.413,1.0,0.36,0.007
14/05/2022,07:41:04,0.416,1.0,0.367,0.007
14/05/2022,07:42:03,0.419,1.0,0.374,0.007
14/05/2022,07:43:03,0.427,1.0,0.381,0.007
14/05/2022,07:44:02,0.434,1.0,0.388,0.007
14/05/2022,07:45:03,0.439,1.0,0.395,0.007
14/05/2022,07:46:03,0.442,1.0,0.403,0.008
14/05/2022,07:47:04,0.448,1.0,0.41,0.007
14/05/2022,07:49:03,0.458,1.0,0.425,0.015
14/05/2022,07:51:04,0.469,1.0,0.441,0.016
14/05/2022,07:52:03,0.473,1.0,0.448,0.007
14/05/2022,07:53:03,0.482,1.0,0.457,0.009
14/05/2022,07:54:02,0.486,1.0,0.464,0.007
14/05/2022,07:55:03,0.491,1.0,0.473,0.009
14/05/2022,07:56:02,0.410,1.0,0.48,0.007
14/05/2022,07:57:03,0.416,1.0,0.487,0.007
14/05/2022,07:58:02,0.504,1.0,0.495,0.008
14/05/2022,07:59:03,0.520,1.0,0.504,0.009
14/05/2022,08:00:03,0.458,1.0,0.512,0.008
14/05/2022,08:01:02,0.473,1.0,0.52,0.008
14/05/2022,08:02:04,0.510,1.0,0.528,0.008
14/05/2022,08:04:04,0.525,1.0,0.545,0.017
14/05/2022,08:05:04,0.524,1.0,0.554,0.009
14/05/2022,08:07:04,0.557,1.0,0.572,0.018
14/05/2022,08:08:11,0.514,1.0,0.582,0.01
14/05/2022,08:10:04,0.585,1.0,0.6,0.018
14/05/2022,08:11:02,0.583,1.0,0.609,0.009
14/05/2022,08:12:03,0.593,1.0,0.619,0.01
14/05/2022,08:13:02,0.583,1.0,0.628,0.009
14/05/2022,08:14:03,0.603,1.0,0.638,0.01
14/05/2022,08:15:03,0.617,1.0,0.649,0.011
14/05/2022,08:16:02,0.622,1.0,0.659,0.01
14/05/2022,08:17:03,0.627,1.0,0.67,0.011
14/05/2022,08:18:02,0.635,1.0,0.68,0.01
14/05/2022,08:19:02,0.641,1.0,0.69,0.01
14/05/2022,08:20:03,0.649,1.0,0.701,0.011
14/05/2022,08:21:12,0.656,2.0,0.714,0.013
14/05/2022,08:23:04,0.667,2.0,0.735,0.021
14/05/2022,08:24:03,0.676,2.0,0.745,0.01
14/05/2022,08:25:03,0.683,2.0,0.757,0.012
14/05/2022,08:27:04,0.696,2.0,0.78,0.023
14/05/2022,08:28:02,0.702,2.0,0.791,0.011
14/05/2022,08:29:03,0.708,2.0,0.803,0.012
14/05/2022,08:30:02,0.713,2.0,0.815,0.012
14/05/2022,08:31:12,0.718,2.0,0.829,0.014
14/05/2022,08:33:04,0.737,2.0,0.851,0.022
14/05/2022,08:35:04,0.747,2.0,0.876,0.025
14/05/2022,08:36:03,0.758,2.0,0.889,0.013
14/05/2022,08:37:04,0.757,2.0,0.901,0.012
14/05/2022,08:39:12,0.764,2.0,0.928,0.027
14/05/2022,08:41:04,0.779,2.0,0.951,0.023
14/05/2022,08:42:03,0.786,2.0,0.964,0.013
14/05/2022,08:43:03,0.797,2.0,0.977,0.013
14/05/2022,08:44:12,0.811,2.0,0.993,0.016
14/05/2022,08:46:04,0.828,2.0,1.018,0.025
14/05/2022,08:47:02,0.836,2.0,1.032,0.014
14/05/2022,08:48:12,0.842,2.0,1.048,0.016
14/05/2022,08:50:04,0.862,2.0,1.075,0.027
14/05/2022,08:51:11,0.872,2.0,1.091,0.016
14/05/2022,08:53:04,0.886,2.0,1.118,0.027
14/05/2022,08:55:04,0.900,2.0,1.148,0.03
14/05/2022,08:56:02,0.909,2.0,1.163,0.015
14/05/2022,08:57:04,0.909,2.0,1.178,0.015
14/05/2022,08:58:04,0.912,2.0,1.194,0.016
14/05/2022,08:59:02,0.925,2.0,1.208,0.014
14/05/2022,09:00:04,0.936,2.0,1.224,0.016
14/05/2022,09:01:02,0.942,2.0,1.239,0.015
14/05/2022,09:02:03,0.951,2.0,1.256,0.017
14/05/2022,09:03:04,0.959,2.0,1.272,0.016
14/05/2022,09:04:02,0.966,2.0,1.287,0.015
14/05/2022,09:06:04,0.978,2.0,1.32,0.033
14/05/2022,09:07:03,0.985,2.0,1.336,0.016
14/05/2022,09:08:03,0.994,2.0,1.353,0.017
14/05/2022,09:09:04,1.003,2.0,1.37,0.017
14/05/2022,09:11:04,1.021,2.0,1.403,0.033
14/05/2022,09:13:04,1.020,2.0,1.437,0.034
14/05/2022,09:14:02,1.023,2.0,1.454,0.017
14/05/2022,09:15:03,1.035,2.0,1.471,0.017
14/05/2022,09:16:03,1.047,2.0,1.489,0.018
14/05/2022,09:17:02,1.057,2.0,1.506,0.017
14/05/2022,09:18:04,1.057,2.0,1.524,0.018
14/05/2022,09:19:03,1.077,2.0,1.541,0.017
14/05/2022,09:20:03,1.077,2.0,1.56,0.019
14/05/2022,09:22:04,1.088,2.0,1.596,0.036
14/05/2022,09:23:03,1.104,3.0,1.613,0.017
14/05/2022,09:24:04,1.110,3.0,1.632,0.019
14/05/2022,09:26:04,1.127,3.0,1.67,0.038
14/05/2022,09:28:04,1.142,3.0,1.707,0.037
14/05/2022,09:29:02,1.148,3.0,1.726,0.019
14/05/2022,09:30:04,1.151,3.0,1.746,0.02
14/05/2022,09:31:04,1.160,3.0,1.765,0.019
14/05/2022,09:32:11,1.170,3.0,1.787,0.022
14/05/2022,09:34:04,1.183,3.0,1.824,0.037
14/05/2022,09:35:02,1.196,3.0,1.843,0.019
14/05/2022,09:36:04,1.199,3.0,1.863,0.02
14/05/2022,09:38:04,1.217,3.0,1.904,0.041
14/05/2022,09:39:02,1.217,3.0,1.923,0.019
14/05/2022,09:40:03,1.220,3.0,1.944,0.021
14/05/2022,09:42:04,1.240,3.0,1.985,0.041
14/05/2022,09:43:02,1.248,3.0,2.005,0.02
14/05/2022,09:44:04,1.254,3.0,2.027,0.022
14/05/2022,09:45:11,1.265,3.0,2.05,0.023
14/05/2022,09:47:04,1.275,3.0,2.09,0.04
14/05/2022,09:48:02,1.266,3.0,2.111,0.021
14/05/2022,09:49:04,1.286,3.0,2.133,0.022
14/05/2022,09:50:04,1.290,3.0,2.154,0.021
14/05/2022,09:51:02,1.302,3.0,2.175,0.021
14/05/2022,09:52:12,1.314,3.0,2.2,0.025
14/05/2022,09:54:04,1.317,3.0,2.241,0.041
14/05/2022,09:55:03,1.324,3.0,2.263,0.022
14/05/2022,09:56:03,1.334,3.0,2.285,0.022
14/05/2022,09:58:04,1.353,3.0,2.33,0.045
14/05/2022,09:59:02,1.368,3.0,2.352,0.022
14/05/2022,10:00:04,1.376,3.0,2.376,0.024
14/05/2022,10:01:02,1.380,3.0,2.398,0.022
14/05/2022,10:02:03,1.379,3.0,2.422,0.024
14/05/2022,10:03:03,1.388,3.0,2.445,0.023
14/05/2022,10:04:04,1.393,3.0,2.468,0.023
14/05/2022,10:05:02,1.392,3.0,2.491,0.023
14/05/2022,10:06:03,1.412,3.0,2.514,0.023
14/05/2022,10:08:04,1.423,3.0,2.562,0.048
14/05/2022,10:10:04,1.416,3.0,2.609,0.047
14/05/2022,10:11:02,1.429,3.0,2.632,0.023
14/05/2022,10:12:04,1.446,3.0,2.657,0.025
14/05/2022,10:14:04,1.457,3.0,2.705,0.048
14/05/2022,10:15:10,1.466,3.0,2.732,0.027
14/05/2022,10:17:04,1.479,3.0,2.778,0.046
14/05/2022,10:18:02,1.488,3.0,2.802,0.024
14/05/2022,10:19:04,1.492,3.0,2.828,0.026
14/05/2022,10:20:04,1.494,3.0,2.853,0.025
14/05/2022,10:21:02,1.497,3.0,2.877,0.024
14/05/2022,10:22:04,1.509,3.0,2.903,0.026
14/05/2022,10:23:04,1.514,3.0,2.928,0.025
14/05/2022,10:24:03,1.523,4.0,2.953,0.025
14/05/2022,10:26:04,1.532,4.0,3.004,0.051
14/05/2022,10:27:02,1.536,4.0,3.029,0.025
14/05/2022,10:29:04,1.548,4.0,3.081,0.052
14/05/2022,10:30:12,1.552,4.0,3.111,0.03
14/05/2022,10:32:04,1.553,4.0,3.159,0.048
14/05/2022,10:33:02,1.565,4.0,3.184,0.025
14/05/2022,10:34:03,1.572,4.0,3.211,0.027
14/05/2022,10:35:04,1.580,4.0,3.237,0.026
14/05/2022,10:36:04,1.589,4.0,3.264,0.027
14/05/2022,10:37:04,1.597,4.0,3.29,0.026
14/05/2022,10:38:02,1.599,4.0,3.316,0.026
14/05/2022,10:39:04,1.604,4.0,3.343,0.027
14/05/2022,10:40:02,1.604,4.0,3.369,0.026
14/05/2022,10:41:03,1.612,4.0,3.396,0.027
14/05/2022,10:42:26,1.619,4.0,3.434,0.038
14/05/2022,10:44:04,1.630,4.0,3.478,0.044
14/05/2022,10:45:10,1.639,4.0,3.508,0.03
14/05/2022,10:47:04,1.646,4.0,3.56,0.052
14/05/2022,10:48:02,1.646,4.0,3.586,0.026
14/05/2022,10:49:03,1.643,4.0,3.614,0.028
14/05/2022,10:50:03,1.655,4.0,3.642,0.028
14/05/2022,10:51:04,1.661,4.0,3.67,0.028
14/05/2022,10:52:02,1.633,4.0,3.696,0.026
14/05/2022,10:53:03,1.649,4.0,3.724,0.028
14/05/2022,10:54:03,1.659,4.0,3.751,0.027
14/05/2022,10:55:04,1.653,4.0,3.779,0.028
14/05/2022,10:56:03,1.620,4.0,3.804,0.025
14/05/2022,10:57:03,1.652,4.0,3.831,0.027
14/05/2022,10:58:03,1.661,4.0,3.859,0.028
14/05/2022,11:00:04,1.691,4.0,3.916,0.057
14/05/2022,11:01:11,1.687,4.0,3.947,0.031
14/05/2022,11:03:04,1.689,4.0,4.0,0.053
14/05/2022,11:04:03,1.694,4.0,4.027,0.027
14/05/2022,11:05:03,1.701,4.0,4.056,0.029
14/05/2022,11:06:03,1.700,4.0,4.085,0.029
14/05/2022,11:07:02,1.703,4.0,4.112,0.027
14/05/2022,11:08:04,1.704,4.0,4.142,0.03
14/05/2022,11:09:04,1.708,4.0,4.17,0.028
14/05/2022,11:10:04,1.713,4.0,4.198,0.028
14/05/2022,11:11:02,1.714,4.0,4.226,0.028
14/05/2022,11:12:03,1.715,4.0,4.255,0.029
14/05/2022,11:13:03,1.714,4.0,4.284,0.029
14/05/2022,11:14:04,1.723,4.0,4.313,0.029
14/05/2022,11:16:04,1.721,4.0,4.37,0.057
14/05/2022,11:17:02,1.734,4.0,4.398,0.028
14/05/2022,11:18:04,1.731,4.0,4.428,0.03
14/05/2022,11:19:02,1.742,4.0,4.456,0.028
14/05/2022,11:20:04,1.751,4.0,4.486,0.03
14/05/2022,11:21:04,1.752,4.0,4.515,0.029
14/05/2022,11:22:11,1.743,4.0,4.547,0.032
14/05/2022,11:24:05,1.757,4.0,4.603,0.056
14/05/2022,11:25:02,1.758,4.0,4.631,0.028
14/05/2022,11:26:03,1.759,4.0,4.661,0.03
14/05/2022,11:28:04,1.763,4.0,4.72,0.059
14/05/2022,11:30:04,1.765,4.0,4.779,0.059
14/05/2022,11:32:04,1.773,4.0,4.838,0.059
14/05/2022,11:33:03,1.784,4.0,4.866,0.028
14/05/2022,11:34:03,1.795,4.0,4.897,0.031
14/05/2022,11:35:12,1.797,4.0,4.931,0.034
14/05/2022,11:37:08,1.768,4.0,4.988,0.057
14/05/2022,11:39:04,1.793,4.0,5.046,0.058
14/05/2022,11:40:02,1.812,4.0,5.075,0.029
14/05/2022,11:41:03,1.781,4.0,5.106,0.031
14/05/2022,11:42:03,1.792,4.0,5.136,0.03
14/05/2022,11:44:13,1.812,4.0,5.201,0.065
14/05/2022,11:46:04,1.814,4.0,5.256,0.055
14/05/2022,11:48:13,1.805,4.0,5.321,0.065
14/05/2022,11:50:04,1.822,4.0,5.377,0.056
14/05/2022,11:51:04,1.821,4.0,5.408,0.031
14/05/2022,11:52:04,1.820,4.0,5.438,0.03
14/05/2022,11:53:10,1.818,4.0,5.471,0.033
14/05/2022,11:55:04,1.814,4.0,5.529,0.058
14/05/2022,11:56:04,1.824,4.0,5.559,0.03
14/05/2022,11:57:03,1.833,4.0,5.589,0.03
14/05/2022,11:58:04,1.833,4.0,5.62,0.031
14/05/2022,11:59:04,1.832,4.0,5.651,0.031
14/05/2022,12:00:04,1.815,4.0,5.681,0.03
14/05/2022,12:01:04,1.816,4.0,5.711,0.03
14/05/2022,12:03:05,1.841,4.0,5.772,0.061
14/05/2022,12:04:03,1.822,4.0,5.803,0.031
14/05/2022,12:05:03,1.824,4.0,5.833,0.03
14/05/2022,12:06:04,1.822,4.0,5.863,0.03
14/05/2022,12:07:11,1.816,4.0,5.898,0.035
14/05/2022,12:09:04,1.838,4.0,5.955,0.057
14/05/2022,12:10:03,1.833,4.0,5.984,0.029
14/05/2022,12:11:03,1.821,4.0,6.016,0.032
14/05/2022,12:12:03,1.825,4.0,6.046,0.03
14/05/2022,12:13:04,1.827,4.0,6.077,0.031
14/05/2022,12:14:04,1.830,4.0,6.107,0.03
14/05/2022,12:16:05,1.830,4.0,6.168,0.061
14/05/2022,12:17:02,1.829,4.0,6.197,0.029
14/05/2022,12:19:12,1.820,4.0,6.263,0.066
14/05/2022,12:21:04,1.841,4.0,6.32,0.057
14/05/2022,12:22:03,1.825,4.0,6.349,0.029
14/05/2022,12:23:03,1.834,4.0,6.381,0.032
14/05/2022,12:24:04,1.820,4.0,6.411,0.03
14/05/2022,12:25:03,1.822,4.0,6.441,0.03
14/05/2022,12:26:03,1.818,4.0,6.472,0.031
14/05/2022,12:27:06,1.820,4.0,6.503,0.031
14/05/2022,12:29:04,1.814,4.0,6.563,0.06
14/05/2022,12:31:05,1.810,4.0,6.623,0.06
14/05/2022,12:32:03,1.822,4.0,6.654,0.031